Location: Carlon Campground
(37.8119°N, 119.8613°W)
Time: 18:27:27
(UTC+00:00)

Cosmos 1727 Rocket - Pass Details

Date: 29 May 2024
Orbit: 961 x 996 km, 82.9° (Epoch: 14 June)

Event Time Altitude Azimuth Distance (km) Brightness Sun altitude
Rises 12:02:48 0° 354° (N) 3,679 7.4 -7.1°
Reaches altitude 10° 12:05:19 10° 355° (N) 2,733 6.8 -6.7°
Maximum altitude 12:11:36 82° 83° (E) 997 4.2 -5.7°
Drops below altitude 10° 12:17:54 10° 172° (S) 2,740 6.1 -4.6°
Sets 12:20:25 0° 173° (S) 3,689 6.8 -4.2°
